Flight Track Log - Related Links

Times and Time Zones

All times are in EST time to prevent confusion due to time zone crossing. See the OPT438 flight status page for this flight to view local times or setup timezone preferences in your user account.

Time Position Orientation Groundspeed Altitude Reporting Facility
EST Latitude Longitude Course Direction KTS MPH feet Rate Location/Type
Tue 01:13:53 PM 40.8333 -74.1000 270° West 178 205 1,500  Level New York TRACON
Tue 01:14:53 PM 40.8333 -74.1667 270° West 191 220 1,900 1,950 Climbing New York TRACON
Tue 01:15:53 PM 40.8500 -74.2333 288° West 234 269 5,400 2,100 Climbing New York TRACON
Tue 01:16:53 PM 40.9167 -74.2333 360° North 263 303 6,100 300 Climbing New York TRACON
Tue 01:17:53 PM 40.9833 -74.2000 21° North 263 303 6,000  Descending New York TRACON
Tue 01:18:53 PM 41.0500 -74.1833 11° North 263 303 6,100 50 Climbing New York TRACON
Tue 01:19:53 PM 41.1000 -74.1000 51° Northeast 282 325 6,100 -150 Level New York TRACON
Tue 01:20:53 PM 41.1333 -74.0000 66° East 279 321 5,800 -450 Descending New York TRACON
Tue 01:21:53 PM 41.1667 -73.9167 62° Northeast 275 316 5,200 -350 Descending New York TRACON
Tue 01:22:53 PM 41.2000 -73.8167 66° East 268 308 5,100 -50 Descending New York TRACON
Tue 01:23:53 PM 41.2333 -73.7167 66° East 286 329 5,100  Level New York TRACON
Tue 01:24:53 PM 41.2667 -73.6333 62° Northeast 293 337 5,100  Level New York TRACON
Tue 01:25:53 PM 41.2667 -73.5333 90° East 281 323 5,100 -50 Level New York TRACON
Tue 01:26:53 PM 41.2667 -73.4333 90° East 278 320 5,000 -550 Descending New York TRACON
Tue 01:27:53 PM 41.2500 -73.3333 102° East 257 296 4,000 -850 Descending New York TRACON
Tue 01:28:53 PM 41.2333 -73.2500 105° East 249 287 3,300 -300 Descending New York TRACON
Tue 01:30:53 PM 41.1500 -73.1167 143° Southeast 235 270 3,100 -67 Descending New York TRACON
Tue 01:31:53 PM 41.1167 -73.0500 124° Southeast 222 255 3,100 -50 Level New York TRACON
Tue 01:32:54 PM 41.0500 -73.0167 159° South 204 235 3,000 -190 Descending New York TRACON
Tue 01:33:59 PM 41.0000 -73.0000 166° South 198 228 2,700 -432 Descending New York TRACON
Tue 01:34:59 PM 40.9500 -72.9667 153° Southeast 196 226 2,100 -300 Descending New York TRACON
Tue 01:35:59 PM 40.9000 -72.9667 180° South 192 221 2,100 -100 Level New York TRACON
Tue 01:36:59 PM 40.8667 -73.0167 229° Southwest 164 189 1,900 -500 Descending New York TRACON
Tue 01:37:59 PM 40.8333 -73.0500 217° Southwest 146 168 1,100 -800 Descending New York TRACON
Tue 01:38:59 PM 40.8000 -73.0833 217° Southwest 126 145 300 -800 Descending New York TRACON
Tue 01:40:00 PM 40.7952 -73.1002 237° Southwest  Level Estimated
Tue 01:47:00 PM 40.7952 -73.1002 237° Southwest  Level Estimated
Tue 01:48:00 PM 40.7952 -73.1002 237° Southwest  Level Estimated
Tue 01:49:00 PM 40.7952 -73.1002 237° Southwest  Level Estimated
Tue 01:50:00 PM 40.7952 -73.1002 237° Southwest  Level Estimated
Tue 01:51:00 PM 40.7952 -73.1002 237° Southwest  Level Estimated
Tue 01:52:00 PM 40.7952 -73.1002 237° Southwest  Level Estimated
Tue 01:53:00 PM 40.7952 -73.1002 237° Southwest  Level Estimated
Tue 01:54:00 PM 40.7952 -73.1002 237° Southwest  Level Estimated
Tue 01:55:00 PM 40.7952 -73.1002 237° Southwest  Level Estimated

Login

Don't have an account? Register now (free) for customized features, flight alerts, and more!